Location: Gniazdowice
(50.2124°N, 20.2673°E)
Time: 15:57:25
(UTC+00:00)

Cosmos 2082 Rocket - Pass Details

Date: 23 May 2024
Orbit: 832 x 853 km, 71.0° (Epoch: 12 June)

Event Time Altitude Azimuth Distance (km) Brightness Sun altitude
Exits shadow 00:07:04 24° 224° (SW) 1,710 3.3 -16.3°
Maximum altitude 00:10:36 68° 302° (WNW) 919 2.4 -16.1°
Drops below altitude 10° 00:16:20 10° 26° (NNE) 2,493 6.0 -15.7°
Sets 00:18:49 0° 29° (NNE) 3,431 7.2 -15.6°
